TRITON-1

Last updated on Mon Jun 22 2026 00:03:48 GMT+0000 (Coordinated Universal Time)

1 39427U 13066M 26172.55009559 .00000792 00000+0 10084-3 0 9990 2 39427 97.8240 82.2577 0088703 219.4507 140.0226 14.81715457674737
UTC large
Height (km)
Speed (km/s)
/
Latitude / Longitude
Inclination (degrees)
Orbital Period (minutes)
Azimuth
Elevation
Range (km)
Doppler Factor

Next 0 passes for location: London (51.5072 / 0.1276)

No passes found over London.
TRITON-1